Flag for Finland Weather past 2 weeks in Lappeenranta, Finland

Now
30 °F

Passing clouds.


Feels Like: 23 °F
Forecast: 32 / 36 °F
Wind: 7 mph from Southwest

Location: Lappeenranta

Current Time: Mar 6, 2015 at 8:12:09 AM

Latest Report: Mar 6, 2015 at 7:20 AM


Visibility: N/A

Pressure: 30.21 "Hg

Humidity: 93%

Dew point: 28 °F

Location of LappeenrantaLocation

Historic Weather in Lappeenranta — Graph

°F

Lappeenranta temperature yesterday

Maximum temperature yesterday: 36 °F (at 3:20 PM)
Minimum temperature yesterday: 32 °F (at 12:20 AM)
Average temperature yesterday: 33 °F

Past Weeks' High & Low Weather Summary

 TemperatureHumidityPressure
High37 °F (Feb 19, 10:50 PM)100% (Feb 19, 6:50 AM)30.30 "Hg (Feb 19, 6:50 AM)
Low28 °F (Feb 26, 10:20 PM)75% (Feb 25, 2:50 PM)29.24 "Hg (Feb 22, 10:20 AM)
Average33 °F94%29.82 "Hg
* Reported Feb 19 6:20 AM — Mar 6 6:50 AM, Lappeenranta, Weather by CustomWeather, © 2015

Note: Actual official high and low records may vary slightly from our data, if they occured in-between our weather recording intervals... More about our weather records

Advertising

Lappeenranta weather history for previous 24 hours

 ConditionsComfort  
Time TempWeatherWind HumidityBarometerVisibility
6:50 AM
Fri, Mar 6
30 °FPassing clouds.6 mph93%30.24 "HgN/A
6:20 AM30 °FPassing clouds.7 mph93%30.24 "HgN/A
5:50 AM30 °FPassing clouds.7 mph93%30.24 "HgN/A
5:20 AM30 °FPassing clouds.5 mph86%30.24 "HgN/A
4:50 AM30 °FPassing clouds.5 mph93%30.24 "HgN/A
4:20 AM30 °FPassing clouds.3 mph93%30.24 "HgN/A
3:50 AM32 °FPassing clouds.5 mph87%30.24 "HgN/A
3:20 AM32 °FOvercast.5 mph87%30.24 "HgN/A
2:50 AM32 °FOvercast.5 mph87%30.27 "HgN/A
2:20 AM32 °FOvercast.5 mph87%30.27 "HgN/A
1:50 AM32 °FOvercast.5 mph87%30.27 "HgN/A
1:20 AM32 °FOvercast.6 mph93%30.27 "HgN/A
12:50 AM32 °FPartly cloudy.6 mph93%30.27 "HgN/A
12:20 AM32 °FPassing clouds.5 mph93%30.27 "HgN/A
11:50 PM
Thu, Mar 5
32 °FPartly cloudy.5 mph93%30.30 "HgN/A
11:20 PM32 °FOvercast.5 mph93%30.30 "HgN/A
10:20 PM32 °FOvercast.5 mph93%30.30 "HgN/A
9:50 PM32 °FPassing clouds.5 mph93%30.30 "HgN/A
9:20 PM32 °FOvercast.3 mph93%30.30 "HgN/A
8:50 PM32 °FOvercast.3 mph93%30.30 "HgN/A
8:20 PM32 °FOvercast.2 mph93%30.27 "HgN/A
7:50 PM32 °FOvercast.2 mph100%30.27 "HgN/A
7:20 PM32 °FOvercast.3 mph93%30.27 "HgN/A
6:50 PM32 °FPassing clouds.5 mph93%30.27 "HgN/A
6:20 PM32 °FPassing clouds.3 mph100%30.27 "HgN/A
5:50 PM32 °FPassing clouds.2 mph100%30.27 "HgN/A
5:20 PM32 °FScattered clouds.2 mph100%30.24 "HgN/A
4:50 PM34 °FPassing clouds.1 mph93%30.27 "HgN/A
4:20 PM34 °FSprinkles. Partly sunny.5 mph93%30.24 "Hg2 mi
3:50 PM34 °FOvercast.6 mph87%30.24 "HgN/A
3:20 PM36 °FPartly sunny.6 mph81%30.24 "HgN/A
2:50 PM34 °FBroken clouds.6 mph87%30.24 "HgN/A
2:20 PM34 °FOvercast.6 mph87%30.21 "HgN/A
1:50 PM34 °FBroken clouds.6 mph87%30.21 "HgN/A
1:20 PM34 °FBroken clouds.7 mph87%30.21 "HgN/A
12:50 PM34 °FBroken clouds.6 mph87%30.21 "HgN/A
12:20 PM34 °FBroken clouds.6 mph87%30.21 "HgN/A
11:50 AM34 °FBroken clouds.6 mph87%30.18 "HgN/A
11:20 AM34 °FLow clouds.6 mph93%30.18 "HgN/A
10:50 AM34 °FPartly sunny.7 mph93%30.18 "HgN/A
10:20 AM34 °FPartly sunny.6 mph93%30.15 "HgN/A
9:50 AM32 °FPartly sunny.6 mph100%30.15 "HgN/A
9:20 AM32 °FPartly sunny.6 mph100%30.15 "HgN/A
8:50 AM32 °FMostly cloudy.3 mph100%30.12 "HgN/A
8:20 AM32 °FPartly sunny.3 mph100%30.12 "HgN/A
Weather by CustomWeather, © 2015

See weather overviewHow to use our weather pages